GW1095 Weather Reports


Display with metric or nautical units.
time (UTC)temp
F
wind
direction
speed
MPH
gust
MPH
rain 1hr
in
rain 24hr
in
rain mn
in
humidity
%
barometer
mb
20260510103038 51 186 4.0 11.0 0.00 0.44 0.00 92 1010.6
20260510101537 51 216 6.0 17.0 0.00 0.44 0.00 92 1010.4
20260510100037 51 203 9.0 17.0 0.00 0.44 0.00 91 1010.1
20260510094543 51 186 8.0 17.0 0.00 0.44 0.00 91 1010.0
20260510093039 51 176 8.0 15.0 0.00 0.44 0.00 91 1010.0
20260510091537 51 172 9.0 17.0 0.00 0.44 0.00 91 1009.7
20260510090042 51 183 8.0 15.0 0.00 0.44 0.00 91 1009.6
20260510084536 51 192 7.0 12.0 0.00 0.44 0.00 90 1009.7
20260510083034 51 172 4.0 11.0 0.00 0.44 0.00 91 1009.7
20260510081543 52 188 6.0 16.0 0.00 0.44 0.00 91 1009.7
20260510080038 52 202 9.0 16.0 0.00 0.44 0.00 90 1009.8
20260510074537 52 175 9.0 16.0 0.00 0.44 0.00 90 1009.4
20260510073036 52 178 5.0 11.0 0.00 0.44 0.00 90 1010.0
20260510071537 52 195 4.0 11.0 0.00 0.44 0.00 90 1010.0
20260510070040 52 172 6.0 13.0 0.00 0.44 0.00 90 1010.6
20260510064538 52 154 6.0 11.0 0.00 0.44 0.00 90 1010.6
20260510063037 52 224 6.0 16.0 0.00 0.44 0.00 90 1010.4
20260510061537 52 261 6.0 14.0 0.00 0.44 0.00 89 1010.5
20260510060036 52 203 7.0 14.0 0.00 0.44 0.00 89 1010.2
20260510054542 52 196 6.0 15.0 0.00 0.44 0.00 89 1010.0
20260510053034 52 137 7.0 19.0 0.00 0.44 0.00 89 1009.9
20260510051535 52 171 8.0 20.0 0.00 0.44 0.00 89 1009.7
20260510050037 52 192 11.0 18.0 0.00 0.44 0.00 89 1009.5
20260510044542 52 186 6.0 15.0 0.00 0.44 0.00 89 1009.8
20260510043037 52 200 8.0 14.0 0.00 0.44 0.00 89 1010.0
20260510041548 52 190 8.0 17.0 0.00 0.44 0.00 88 1009.9
20260510040040 53 186 9.0 16.0 0.00 0.44 0.00 88 1010.0
20260510034534 53 190 7.0 18.0 0.00 0.44 0.44 89 1009.9
20260510033043 53 174 8.0 17.0 0.00 0.44 0.44 89 1009.9
20260510031549 53 157 6.0 16.0 0.00 0.44 0.44 89 1009.8
20260510030037 53 173 7.0 14.0 0.00 0.44 0.44 89 1009.8
20260510024539 53 167 7.0 14.0 0.00 0.44 0.44 89 1010.1
20260510023034 53 183 8.0 14.0 0.00 0.44 0.44 89 1010.1
20260510021538 53 179 9.0 16.0 0.00 0.44 0.44 89 1010.0
20260510020037 53 161 6.0 14.0 0.00 0.44 0.44 89 1009.8
20260510014538 53 163 8.0 17.0 0.00 0.44 0.44 89 1009.9
20260510013046 53 192 7.0 14.0 0.00 0.44 0.44 90 1010.0
20260510011536 53 177 7.0 14.0 0.00 0.44 0.44 90 1010.2
20260510010033 53 169 7.0 14.0 0.00 0.44 0.44 90 1009.9
20260510004545 53 180 7.0 14.0 0.00 0.44 0.44 90 1009.9
20260510003038 53 178 6.0 12.0 0.00 0.44 0.44 90 1009.9
20260510001537 54 182 4.0 12.0 0.00 0.44 0.44 90 1009.6
20260510000037 54 197 7.0 13.0 0.00 0.44 0.44 91 1009.3
20260509234535 54 145 6.0 12.0 0.00 0.44 0.44 91 1009.3
20260509233038 54 165 6.0 13.0 0.00 0.44 0.44 91 1009.1
20260509231537 54 180 5.0 12.0 0.00 0.44 0.44 91 1008.8
20260509230037 54 163 7.0 17.0 0.00 0.44 0.44 92 1008.8
20260509224537 54 167 6.0 17.0 0.00 0.44 0.44 92 1008.9
20260509223043 54 148 7.0 17.0 0.00 0.44 0.44 92 1008.8
20260509221541 54 180 6.0 15.0 0.00 0.44 0.44 93 1009.0
20260509220039 54 211 7.0 15.0 0.00 0.44 0.44 93 1008.9
20260509214540 54 185 6.0 18.0 0.00 0.44 0.44 93 1009.2
20260509213037 53 204 4.0 14.0 0.00 0.44 0.44 93 1009.3
20260509211537 53 167 4.0 12.0 0.00 0.44 0.44 93 1009.3
20260509210049 52 191 5.0 11.0 0.00 0.44 0.44 93 1009.4
20260509204537 52 179 2.0 10.0 0.00 0.44 0.44 93 1009.6
20260509203036 51 175 4.0 9.0 0.01 0.44 0.44 93 1009.6
20260509201538 51 130 4.0 9.0 0.02 0.44 0.44 92 1010.0
20260509200046 51 175 1.0 10.0 0.02 0.44 0.44 92 1010.2
20260509194537 51 184 3.0 10.0 0.02 0.44 0.44 92 1010.3
20260509193036 51 167 4.0 10.0 0.01 0.43 0.43 92 1010.4
20260509191537 51 174 4.0 10.0 0.01 0.42 0.42 92 1010.4
20260509190042 51 178 4.0 10.0 0.02 0.42 0.42 92 1010.6
20260509184538 50 164 4.0 11.0 0.04 0.42 0.42 93 1010.6
20260509183036 50 200 3.0 9.0 0.06 0.42 0.42 92 1010.7
20260509181537 50 130 5.0 9.0 0.07 0.41 0.41 92 1010.8
20260509180041 49 170 5.0 10.0 0.07 0.40 0.40 92 1010.8
20260509174539 49 142 4.0 11.0 0.06 0.38 0.38 92 1011.0
20260509173100 48 175 4.0 8.0 0.06 0.36 0.36 92 1011.1
20260509171541 48 126 3.0 10.0 0.05 0.34 0.34 92 1011.2
20260509170042 48 111 4.0 10.0 0.05 0.33 0.33 92 1011.1
20260509164536 48 163 3.0 9.0 0.04 0.31 0.31 92 1011.5
20260509163041 48 163 4.0 10.0 0.05 0.30 0.30 91 1011.7
20260509161540 47 174 4.0 8.0 0.06 0.29 0.29 92 1011.9
20260509160038 47 130 2.0 7.0 0.08 0.28 0.28 91 1012.1
20260509154537 46 141 2.0 6.0 0.10 0.27 0.27 91 1012.3
20260509153037 46 90 2.0 4.0 0.11 0.25 0.25 90 1012.6
20260509151543 45 0 0.0 0.0 0.12 0.23 0.23 89 1012.9
20260509150044 45 0 0.0 0.0 0.11 0.20 0.20 89 1013.0
20260509144537 45 0 0.0 0.0 0.09 0.17 0.17 89 1012.8
20260509143044 44 0 0.0 0.0 0.08 0.14 0.14 89 1012.9
20260509141537 44 0 0.0 2.0 0.06 0.11 0.11 88 1012.7
20260509140036 44 0 0.0 2.0 0.05 0.09 0.09 88 1012.7
20260509134539 44 38 0.0 2.0 0.05 0.08 0.08 88 1012.7
20260509133038 43 0 0.0 2.0 0.04 0.06 0.06 88 1012.8
20260509131545 43 0 0.0 2.0 0.04 0.05 0.05 88 1012.9
20260509130056 43 0 0.0 0.0 0.03 0.04 0.04 87 1012.8
20260509124540 43 0 0.0 0.0 0.03 0.03 0.03 86 1013.0
20260509123107 42 0 0.0 1.0 0.02 0.02 0.02 86 1013.0
20260509121540 42 0 0.0 3.0 0.01 0.01 0.01 86 1013.0
20260509120047 42 0 0.0 3.0 0.01 0.01 0.01 86 1013.1
20260509114549 42 336 1.0 4.0 0.00 0.00 0.00 86 1013.2
20260509113037 41 0 0.0 0.0 0.00 0.00 0.00 86 1013.1
20260509111536 41 0 0.0 0.0 0.00 0.00 0.00 86 1013.0
20260509110033 41 86 0.0 2.0 0.00 0.00 0.00 86 1012.7
20260509104532 40 84 1.0 4.0 0.00 0.00 0.00 86 1012.7